This demonstration page uses our WeatherBlox Daily Observations layout. Learn more.

Left ArrowRight Arrow

Hourly Observations for February 12, 2016

Temp ( °F °C ) Dew Point ( °F °C ) Humidity (%) Winds ( mph kmh ) Pressure ( in mb ) Visibility ( mi km ) Precip ( " mm )
12:51 am 00:51 Clear 43 6.1 22 -5.6 43 43 Calm 30.15 1021 10 16 0.00 0.00
1:51 am 01:51 Clear 40 4.4 21 -6.1 47 47 E 5 7 30.16 1021 10 16 0.00 0.00
2:51 am 02:51 Clear 39 3.9 22 -5.6 50 50 SSE 3 6 30.16 1021 10 16 0.00 0.00
3:51 am 03:51 Clear 38 3.3 21 -6.1 51 51 ESE 3 6 30.16 1022 10 16 0.00 0.00
4:51 am 04:51 Clear 37 2.8 20 -6.7 50 50 ESE 3 6 30.17 1022 10 16 0.00 0.00
5:51 am 05:51 Clear 37 2.8 20 -6.7 50 50 SSE 6 9 30.20 1023 10 16 0.00 0.00
6:51 am 06:51 Clear 34 1.1 20 -6.7 56 56 E 5 7 30.24 1024 10 16 0.00 0.00
7:51 am 07:51 Sunny 41 5 20 -6.7 43 43 Calm 30.24 1024 10 16 0.00 0.00
8:51 am 08:51 Sunny 48 8.9 21 -6.1 34 34 SSE 3 6 30.26 1025 10 16 0.00 0.00
9:51 am 09:51 Sunny 58 14.4 20 -6.7 23 23 SSE 12 19 30.24 1024 10 16 0.00 0.00
10:51 am 10:51 Sunny 64 17.8 19 -7.2 18 18 SSE 9 15 30.22 1024 10 16 0.00 0.00
11:51 am 11:51 Sunny 68 20 18 -7.8 15 15 SSE 8 13 30.19 1023 10 16 0.00 0.00
12:51 pm 12:51 Sunny 72 22.2 18 -7.8 13 13 ESE 6 9 30.15 1021 10 16 0.00 0.00
1:51 pm 13:51 Sunny 75 23.9 18 -7.8 11 11 SE 5 7 30.11 1020 10 16 0.00 0.00
2:51 pm 14:51 Sunny 76 24.4 18 -7.8 11 11 Calm 30.08 1019 10 16 0.00 0.00
3:51 pm 15:51 Sunny 78 25.6 18 -7.8 10 10 ESE 3 6 30.06 1018 10 16 0.00 0.00
4:51 pm 16:51 Sunny 78 25.6 17 -8.3 10 10 Calm 30.06 1018 10 16 0.00 0.00
5:51 pm 17:51 Sunny 73 22.8 19 -7.2 13 13 SW 6 9 30.08 1019 10 16 0.00 0.00
6:51 pm 18:51 Clear 61 16.1 21 -6.1 21 21 NNE 6 9 30.11 1020 10 16 0.00 0.00
7:51 pm 19:51 Clear 56 13.3 21 -6.1 26 26 E 7 11 30.11 1020 10 16 0.00 0.00
8:51 pm 20:51 Clear 54 12.2 21 -6.1 28 28 ESE 6 9 30.12 1020 10 16 0.00 0.00
9:51 pm 21:51 Clear 51 10.6 19 -7.2 28 28 Calm 30.11 1020 10 16 0.00 0.00
10:51 pm 22:51 Clear 47 8.3 20 -6.7 34 34 ESE 6 9 30.11 1020 10 16 0.00 0.00
11:51 pm 23:51 Clear 53 11.7 19 -7.2 26 26 E 13 20 30.09 1019 10 16 0.00 0.00

Powered by AerisWeather